WIF1381 ENAL-ENVA

Flight info

Callsign WIF1381
Flight time 0h 39m
Altitude 19000
Route NELSU
Aircraft DH8D/M-SDFGRY/SB1

Departure

Time 2026-04-21 15:56
Airport Ålesund Airport (ENAL)

Arrival

Time 2026-04-21 16:35
Airport Trondheim Airport, Værnes (ENVA)
Time Latitude Longitude Altitude Speed Heading
2026-04-21 15:43 62.55875 6.11312 73 ft 0 kts 155°
2026-04-21 15:48 62.55875 6.11313 73 ft 0 kts 154°
2026-04-21 15:49 62.55885 6.11302 72 ft 2 kts 156°
2026-04-21 15:49 62.55901 6.11288 72 ft 2 kts 156°
2026-04-21 15:49 62.55915 6.11273 72 ft 2 kts 156°
2026-04-21 15:49 62.55925 6.11264 72 ft 0 kts 155°
2026-04-21 15:50 62.55925 6.11263 72 ft 0 kts 155°
2026-04-21 15:52 62.55920 6.11266 72 ft 1 kts 176°
2026-04-21 15:52 62.55908 6.11226 72 ft 3 kts 259°
2026-04-21 15:52 62.55896 6.11089 71 ft 11 kts 271°
2026-04-21 15:53 62.55915 6.10909 70 ft 10 kts 287°
2026-04-21 15:53 62.55939 6.10738 69 ft 15 kts 286°
2026-04-21 15:53 62.55921 6.10492 67 ft 19 kts 245°
2026-04-21 15:53 62.55841 6.10116 59 ft 31 kts 244°
2026-04-21 15:54 62.55747 6.09688 48 ft 27 kts 245°
2026-04-21 15:54 62.55661 6.09297 36 ft 24 kts 242°
2026-04-21 15:54 62.55597 6.09026 29 ft 12 kts 344°
2026-04-21 15:54 62.55618 6.09088 31 ft 0 kts 66°
2026-04-21 15:55 62.55708 6.09516 43 ft 76 kts 64°
2026-04-21 15:56 62.56060 6.11113 73 ft 146 kts 63°
2026-04-21 15:56 62.56529 6.13401 451 ft 161 kts 65°
2026-04-21 15:56 62.56993 6.16029 1094 ft 174 kts 73°
2026-04-21 15:56 62.57468 6.18686 1635 ft 190 kts 63°
2026-04-21 15:57 62.58184 6.21706 1879 ft 218 kts 59°
2026-04-21 15:57 62.59006 6.24720 2677 ft 218 kts 58°
2026-04-21 15:57 62.59865 6.27804 3425 ft 220 kts 57°
2026-04-21 15:57 62.60837 6.30710 4124 ft 223 kts 48°
2026-04-21 15:58 62.62008 6.33563 4866 ft 226 kts 47°
2026-04-21 15:58 62.63217 6.36467 5638 ft 228 kts 47°
2026-04-21 15:58 62.64411 6.39320 6386 ft 231 kts 46°
2026-04-21 15:58 62.65582 6.42110 7083 ft 235 kts 46°
2026-04-21 15:59 62.66855 6.45138 7802 ft 239 kts 46°
2026-04-21 15:59 62.68061 6.48342 8493 ft 244 kts 60°
2026-04-21 15:59 62.68636 6.52521 9179 ft 249 kts 77°
2026-04-21 15:59 62.69030 6.56562 9864 ft 252 kts 77°
2026-04-21 16:00 62.69441 6.60765 10581 ft 255 kts 77°
2026-04-21 16:00 62.69849 6.64923 11284 ft 257 kts 77°
2026-04-21 16:00 62.70262 6.69088 11831 ft 261 kts 78°
2026-04-21 16:00 62.70698 6.73505 12475 ft 263 kts 78°
2026-04-21 16:01 62.71121 6.77785 12995 ft 267 kts 78°
2026-04-21 16:01 62.71584 6.82486 12897 ft 295 kts 78°
2026-04-21 16:01 62.72058 6.87277 13463 ft 293 kts 78°
2026-04-21 16:01 62.72509 6.91847 13936 ft 295 kts 78°
2026-04-21 16:02 62.72970 6.96532 14396 ft 296 kts 78°
2026-04-21 16:02 62.73423 7.01151 14837 ft 298 kts 78°
2026-04-21 16:02 62.73904 7.06068 15682 ft 287 kts 78°
2026-04-21 16:02 62.74387 7.11022 16185 ft 287 kts 78°
2026-04-21 16:03 62.74873 7.16042 16667 ft 288 kts 78°
2026-04-21 16:03 62.75355 7.21038 17141 ft 289 kts 78°
2026-04-21 16:03 62.75835 7.26022 17626 ft 289 kts 78°
2026-04-21 16:03 62.76296 7.30835 18046 ft 290 kts 78°
2026-04-21 16:04 62.76776 7.35861 18452 ft 291 kts 78°
2026-04-21 16:04 62.77259 7.40942 18834 ft 293 kts 78°
2026-04-21 16:04 62.77734 7.45962 19229 ft 293 kts 78°
2026-04-21 16:04 62.78205 7.50946 19474 ft 298 kts 77°
2026-04-21 16:05 62.78698 7.56194 19529 ft 309 kts 77°
2026-04-21 16:05 62.79198 7.61543 19544 ft 319 kts 77°
2026-04-21 16:05 62.79705 7.66997 19532 ft 326 kts 78°
2026-04-21 16:05 62.80225 7.72603 19519 ft 333 kts 78°
2026-04-21 16:06 62.80750 7.78290 19526 ft 338 kts 78°
2026-04-21 16:06 62.81266 7.83918 19509 ft 342 kts 78°
2026-04-21 16:06 62.81772 7.89460 19523 ft 343 kts 78°
2026-04-21 16:06 62.82274 7.94867 19522 ft 344 kts 77°
2026-04-21 16:07 62.83274 7.99850 19526 ft 341 kts 55°
2026-04-21 16:07 62.84794 8.04133 19505 ft 342 kts 51°
2026-04-21 16:07 62.86385 8.08493 19497 ft 343 kts 51°
2026-04-21 16:07 62.87956 8.12791 19491 ft 344 kts 51°
2026-04-21 16:08 62.91189 8.21685 19481 ft 344 kts 51°
2026-04-21 16:08 62.92833 8.26226 19482 ft 343 kts 51°
2026-04-21 16:08 62.94440 8.30678 19484 ft 342 kts 51°
2026-04-21 16:09 62.96022 8.35075 19485 ft 341 kts 51°
2026-04-21 16:09 62.97626 8.39538 19490 ft 341 kts 51°
2026-04-21 16:09 62.99234 8.44027 19489 ft 340 kts 51°
2026-04-21 16:09 63.00809 8.48432 19497 ft 340 kts 51°
2026-04-21 16:10 63.02418 8.52939 19497 ft 340 kts 51°
2026-04-21 16:10 63.04036 8.57486 19497 ft 340 kts 51°
2026-04-21 16:10 63.05648 8.62022 19491 ft 340 kts 51°
2026-04-21 16:10 63.07188 8.66364 19469 ft 341 kts 52°
2026-04-21 16:11 63.08731 8.70725 19472 ft 341 kts 52°
2026-04-21 16:11 63.10334 8.75262 19466 ft 341 kts 52°
2026-04-21 16:11 63.11848 8.79736 19445 ft 340 kts 57°
2026-04-21 16:11 63.12612 8.85094 19457 ft 341 kts 84°
2026-04-21 16:12 63.12569 8.91058 19447 ft 341 kts 91°
2026-04-21 16:12 63.12448 8.96991 19457 ft 341 kts 91°
2026-04-21 16:12 63.12311 9.03172 19471 ft 342 kts 91°
2026-04-21 16:12 63.12168 9.09502 19468 ft 342 kts 91°
2026-04-21 16:13 63.12026 9.15729 19447 ft 344 kts 91°
2026-04-21 16:13 63.11883 9.21902 19443 ft 344 kts 91°
2026-04-21 16:13 63.11738 9.28073 19424 ft 345 kts 91°
2026-04-21 16:13 63.11592 9.34172 19421 ft 344 kts 91°
2026-04-21 16:14 63.11438 9.40530 19416 ft 344 kts 91°
2026-04-21 16:14 63.11284 9.46724 19415 ft 343 kts 91°
2026-04-21 16:14 63.11131 9.52823 19409 ft 342 kts 91°
2026-04-21 16:14 63.10974 9.58973 19414 ft 342 kts 91°
2026-04-21 16:15 63.10981 9.65130 19421 ft 340 kts 82°
2026-04-21 16:15 63.11406 9.71139 19428 ft 338 kts 79°
2026-04-21 16:15 63.11847 9.77005 19437 ft 339 kts 79°
2026-04-21 16:15 63.12271 9.82710 19430 ft 339 kts 79°
2026-04-21 16:16 63.12707 9.88627 19433 ft 339 kts 79°
2026-04-21 16:16 63.13134 9.94505 19432 ft 340 kts 79°
2026-04-21 16:16 63.13560 10.00440 19428 ft 339 kts 79°
2026-04-21 16:16 63.13969 10.06156 19425 ft 339 kts 79°
2026-04-21 16:17 63.14391 10.12123 19428 ft 339 kts 79°
2026-04-21 16:17 63.14807 10.18060 19427 ft 339 kts 79°
2026-04-21 16:17 63.15231 10.24153 19440 ft 338 kts 79°
2026-04-21 16:17 63.15618 10.29737 19448 ft 339 kts 79°
2026-04-21 16:18 63.16014 10.35506 19446 ft 339 kts 79°
2026-04-21 16:18 63.16411 10.41309 19451 ft 340 kts 79°
2026-04-21 16:18 63.16817 10.47304 19460 ft 340 kts 79°
2026-04-21 16:18 63.17201 10.52999 19459 ft 340 kts 79°
2026-04-21 16:19 63.17595 10.58891 19458 ft 341 kts 79°
2026-04-21 16:19 63.17992 10.64926 19454 ft 340 kts 79°
2026-04-21 16:19 63.18366 10.70650 19449 ft 342 kts 80°
2026-04-21 16:19 63.18742 10.76356 19447 ft 342 kts 80°
2026-04-21 16:20 63.19123 10.82170 19445 ft 342 kts 80°
2026-04-21 16:20 63.19495 10.87885 19446 ft 341 kts 80°
2026-04-21 16:20 63.19857 10.93497 19451 ft 341 kts 80°
2026-04-21 16:20 63.20219 10.99113 19256 ft 336 kts 80°
2026-04-21 16:21 63.20580 11.04744 18845 ft 337 kts 80°
2026-04-21 16:21 63.20953 11.10604 18374 ft 338 kts 80°
2026-04-21 16:21 63.21314 11.16341 17925 ft 340 kts 80°
2026-04-21 16:21 63.21666 11.22040 17494 ft 340 kts 80°
2026-04-21 16:22 63.22023 11.27911 17056 ft 340 kts 79°
2026-04-21 16:22 63.22367 11.33688 16625 ft 339 kts 80°
2026-04-21 16:22 63.22702 11.39414 16160 ft 330 kts 79°
2026-04-21 16:22 63.23024 11.45029 15677 ft 322 kts 79°
2026-04-21 16:23 63.23325 11.50468 15176 ft 312 kts 79°
2026-04-21 16:23 63.23422 11.55718 14613 ft 308 kts 92°
2026-04-21 16:23 63.23302 11.60960 14036 ft 299 kts 81°
2026-04-21 16:23 63.23650 11.66047 13471 ft 292 kts 76°
2026-04-21 16:24 63.24142 11.70904 12893 ft 286 kts 66°
2026-04-21 16:24 63.25228 11.74847 12311 ft 277 kts 48°
2026-04-21 16:24 63.26542 11.78480 11766 ft 274 kts 47°
2026-04-21 16:24 63.27840 11.81967 11229 ft 271 kts 45°
2026-04-21 16:25 63.29343 11.84726 10659 ft 263 kts 25°
2026-04-21 16:25 63.31074 11.86540 10136 ft 260 kts 20°
2026-04-21 16:25 63.32893 11.87331 9827 ft 239 kts 350°
2026-04-21 16:25 63.34327 11.85545 9679 ft 227 kts 311°
2026-04-21 16:26 63.35077 11.82225 9472 ft 230 kts 294°
2026-04-21 16:26 63.35614 11.78677 9167 ft 237 kts 291°
2026-04-21 16:26 63.36128 11.74760 8530 ft 246 kts 289°
2026-04-21 16:26 63.36572 11.70904 8071 ft 240 kts 288°
2026-04-21 16:27 63.36990 11.67041 7684 ft 231 kts 288°
2026-04-21 16:27 63.37367 11.63393 7352 ft 221 kts 288°
2026-04-21 16:27 63.37727 11.59784 7038 ft 215 kts 287°
2026-04-21 16:27 63.38110 11.56289 6680 ft 220 kts 294°
2026-04-21 16:28 63.39116 11.53681 6386 ft 209 kts 333°
2026-04-21 16:28 63.40540 11.52433 6111 ft 207 kts 340°
2026-04-21 16:28 63.41987 11.51312 5822 ft 207 kts 340°
2026-04-21 16:28 63.43400 11.50228 5539 ft 207 kts 341°
2026-04-21 16:29 63.44788 11.48880 5148 ft 209 kts 323°
2026-04-21 16:29 63.45497 11.46053 4868 ft 206 kts 281°
2026-04-21 16:29 63.45486 11.42760 4614 ft 201 kts 274°
2026-04-21 16:29 63.45535 11.39625 4406 ft 192 kts 277°
2026-04-21 16:30 63.45576 11.36585 4258 ft 185 kts 275°
2026-04-21 16:30 63.45594 11.33599 4000 ft 183 kts 275°
2026-04-21 16:30 63.45615 11.30674 3744 ft 176 kts 275°
2026-04-21 16:30 63.45628 11.27900 3463 ft 167 kts 275°
2026-04-21 16:31 63.45641 11.25254 3136 ft 160 kts 274°
2026-04-21 16:31 63.45654 11.22751 2858 ft 150 kts 275°
2026-04-21 16:31 63.45663 11.20370 2678 ft 142 kts 275°
2026-04-21 16:31 63.45675 11.18124 2435 ft 136 kts 275°
2026-04-21 16:32 63.45685 11.15931 2224 ft 124 kts 275°
2026-04-21 16:32 63.45700 11.13921 2116 ft 124 kts 276°
2026-04-21 16:32 63.45718 11.11879 1887 ft 126 kts 275°
2026-04-21 16:32 63.45719 11.09888 1641 ft 120 kts 274°
2026-04-21 16:33 63.45726 11.07974 1461 ft 120 kts 275°
2026-04-21 16:33 63.45742 11.06044 1290 ft 123 kts 274°
2026-04-21 16:33 63.45744 11.04068 1093 ft 123 kts 273°
2026-04-21 16:33 63.45747 11.02124 894 ft 123 kts 273°
2026-04-21 16:34 63.45747 11.00179 695 ft 119 kts 271°
2026-04-21 16:34 63.45741 10.98299 492 ft 117 kts 271°
2026-04-21 16:34 63.45740 10.96420 326 ft 118 kts 271°
2026-04-21 16:34 63.45748 10.94530 140 ft 119 kts 271°
2026-04-21 16:35 63.45757 10.92665 19 ft 112 kts 271°
2026-04-21 16:35 63.45762 10.91088 6 ft 75 kts 268°
2026-04-21 16:35 63.45727 10.90502 3 ft 19 kts 233°
2026-04-21 16:35 63.45634 10.90383 3 ft 13 kts 167°
2026-04-21 16:36 63.45598 10.90548 3 ft 12 kts 89°
2026-04-21 16:36 63.45598 10.90772 3 ft 12 kts 91°
2026-04-21 16:36 63.45599 10.90966 5 ft 12 kts 89°
2026-04-21 16:36 63.45599 10.91168 6 ft 12 kts 88°
2026-04-21 16:37 63.45581 10.91356 6 ft 12 kts 148°
2026-04-21 16:37 63.45502 10.91365 6 ft 3 kts 180°